• En España
  • Lista de países
  • Para 7 días
  • Temperatura del agua
  • Mapa Satelital
  • El tiempo en el mapa
  • Informadores
  • user-avatar
    Iniciar sesión

    Tiempo cada hora Albany

    Hoy, 24 Septiembre, Domingo

    Tiempo Temperatura Precipitaciones Viento Presión Humedad
    00:00 +8°C° 0,2 mm 3 mps 753 mmHg 88%
    01:00 +7°C° 0,2 mm 3 mps 753 mmHg 88%
    02:00 +7°C° 0 mm 3 mps 752 mmHg 90%
    03:00 +7°C° 0,3 mm 3 mps 752 mmHg 89%
    04:00 +5°C° 0,3 mm 3 mps 752 mmHg 88%
    05:00 +5°C° 0,3 mm 3 mps 752 mmHg 87%
    06:00 +7°C° 0,3 mm 3 mps 752 mmHg 82%
    07:00 +8°C° 0,3 mm 3 mps 752 mmHg 78%
    08:00 +10°C° 0 mm 4 mps 752 mmHg 74%
    09:00 +12°C° 0,3 mm 3 mps 752 mmHg 66%
    10:00 +13°C° 0,3 mm 3 mps 752 mmHg 59%
    11:00 +16°C° 0,3 mm 2 mps 752 mmHg 51%
    12:00 +16°C° 0,3 mm 3 mps 751 mmHg 54%
    13:00 +15°C° 0,3 mm 4 mps 751 mmHg 57%
    14:00 +15°C° 0 mm 4 mps 751 mmHg 55%
    15:00 +14°C° 0,1 mm 5 mps 751 mmHg 59%
    16:00 +14°C° 0,1 mm 6 mps 751 mmHg 63%
    17:00 +13°C° 0,1 mm 6 mps 750 mmHg 67%
    18:00 +11°C° 0,1 mm 7 mps 751 mmHg 71%
    19:00 +11°C° 0,1 mm 7 mps 751 mmHg 74%
    20:00 +10°C° 0,1 mm 7 mps 751 mmHg 77%
    21:00 +10°C° 0,5 mm 7 mps 751 mmHg 82%
    22:00 +9°C° 0,5 mm 8 mps 751 mmHg 86%
    23:00 +9°C° 0,5 mm 8 mps 751 mmHg 91%

    Mañana, 25 Septiembre, Lunes

    Tiempo Temperatura Precipitaciones Viento Presión Humedad
    00:00 +9°C° 1,3 mm 8 mps 751 mmHg 91%
    01:00 +8°C° 1,3 mm 9 mps 750 mmHg 91%
    02:00 +8°C° 1,3 mm 9 mps 750 mmHg 91%
    03:00 +7°C° 1 mm 9 mps 750 mmHg 90%
    04:00 +7°C° 1 mm 8 mps 750 mmHg 90%
    05:00 +7°C° 1 mm 8 mps 750 mmHg 89%
    06:00 +7°C° 1,2 mm 8 mps 750 mmHg 90%
    07:00 +8°C° 1,2 mm 7 mps 750 mmHg 90%
    08:00 +8°C° 1,2 mm 7 mps 751 mmHg 90%
    09:00 +9°C° 0,9 mm 7 mps 751 mmHg 88%
    10:00 +9°C° 0,9 mm 8 mps 751 mmHg 86%
    11:00 +10°C° 0,9 mm 8 mps 751 mmHg 84%
    12:00 +10°C° 0,7 mm 8 mps 750 mmHg 82%
    13:00 +10°C° 0,7 mm 8 mps 750 mmHg 81%
    14:00 +10°C° 0,7 mm 9 mps 750 mmHg 79%
    15:00 +10°C° 0,6 mm 9 mps 750 mmHg 81%
    16:00 +10°C° 0,6 mm 9 mps 750 mmHg 82%
    17:00 +10°C° 0,6 mm 9 mps 750 mmHg 83%
    18:00 +10°C° 0,7 mm 9 mps 750 mmHg 85%
    19:00 +10°C° 0,7 mm 9 mps 751 mmHg 86%
    20:00 +10°C° 0,7 mm 9 mps 751 mmHg 88%
    21:00 +10°C° 0,7 mm 9 mps 751 mmHg 88%
    22:00 +10°C° 0,7 mm 9 mps 751 mmHg 89%
    23:00 +9°C° 0,7 mm 10 mps 751 mmHg 90%

    Pasado mañana, 26 Septiembre, Martes

    Tiempo Temperatura Precipitaciones Viento Presión Humedad
    00:00 +9°C° 0,3 mm 10 mps 751 mmHg 88%
    01:00 +8°C° 0,3 mm 10 mps 752 mmHg 87%
    02:00 +8°C° 0,3 mm 10 mps 752 mmHg 85%
    03:00 +8°C° 0,4 mm 9 mps 752 mmHg 86%
    04:00 +8°C° 0,4 mm 9 mps 752 mmHg 86%
    05:00 +9°C° 0,4 mm 8 mps 753 mmHg 86%
    06:00 +9°C° 0,3 mm 8 mps 753 mmHg 85%
    07:00 +10°C° 0,3 mm 8 mps 754 mmHg 83%
    08:00 +10°C° 0,3 mm 9 mps 755 mmHg 81%
    09:00 +11°C° 0,2 mm 8 mps 755 mmHg 75%
    10:00 +12°C° 0,2 mm 8 mps 756 mmHg 68%
    11:00 +12°C° 0,2 mm 8 mps 756 mmHg 61%
    12:00 +12°C° 0 mm 8 mps 756 mmHg 59%
    13:00 +12°C° 0 mm 7 mps 756 mmHg 57%
    14:00 +14°C° 0 mm 7 mps 756 mmHg 55%
    15:00 +13°C° 0 mm 6 mps 756 mmHg 57%
    16:00 +11°C° 0 mm 6 mps 756 mmHg 60%
    17:00 +10°C° 0 mm 6 mps 757 mmHg 62%
    18:00 +9°C° 0,1 mm 5 mps 757 mmHg 68%
    19:00 +8°C° 0,1 mm 5 mps 758 mmHg 75%
    20:00 +8°C° 0,1 mm 5 mps 759 mmHg 81%
    21:00 +7°C° 0,2 mm 5 mps 759 mmHg 82%
    22:00 +7°C° 0,2 mm 4 mps 759 mmHg 84%
    23:00 +7°C° 0,2 mm 4 mps 759 mmHg 86%

    27 Septiembre, Miércoles

    Tiempo Temperatura Precipitaciones Viento Presión Humedad
    00:00 +7°C° 0,1 mm 4 mps 759 mmHg 86%
    01:00 +7°C° 0,1 mm 4 mps 759 mmHg 86%
    02:00 +7°C° 0,1 mm 4 mps 759 mmHg 86%
    03:00 +7°C° 0,1 mm 4 mps 759 mmHg 85%
    04:00 +6°C° 0,1 mm 4 mps 759 mmHg 85%
    05:00 +6°C° 0,1 mm 4 mps 759 mmHg 85%
    06:00 +7°C° 0 mm 4 mps 760 mmHg 83%
    07:00 +9°C° 0 mm 3 mps 760 mmHg 82%
    08:00 +9°C° 0 mm 3 mps 761 mmHg 81%
    09:00 +10°C° 0 mm 4 mps 761 mmHg 77%
    10:00 +11°C° 0 mm 4 mps 760 mmHg 74%
    11:00 +12°C° 0 mm 4 mps 760 mmHg 70%
    12:00 +12°C° 0,1 mm 5 mps 760 mmHg 69%
    13:00 +13°C° 0,1 mm 5 mps 760 mmHg 68%
    14:00 +13°C° 0,1 mm 5 mps 759 mmHg 68%
    15:00 +13°C° 0,1 mm 5 mps 759 mmHg 70%
    16:00 +13°C° 0,1 mm 4 mps 759 mmHg 72%
    17:00 +12°C° 0,1 mm 4 mps 759 mmHg 74%
    18:00 +12°C° 0,2 mm 4 mps 760 mmHg 78%
    19:00 +11°C° 0,2 mm 4 mps 760 mmHg 81%
    20:00 +10°C° 0,2 mm 4 mps 761 mmHg 85%
    21:00 +10°C° 0,2 mm 4 mps 760 mmHg 87%
    22:00 +10°C° 0,2 mm 4 mps 760 mmHg 89%
    23:00 +8°C° 0,2 mm 4 mps 760 mmHg 90%

    28 Septiembre, Jueves

    Tiempo Temperatura Precipitaciones Viento Presión Humedad
    00:00 +8°C° 0,1 mm 4 mps 760 mmHg 90%
    01:00 +8°C° 0,1 mm 4 mps 759 mmHg 90%
    02:00 +8°C° 0,1 mm 4 mps 759 mmHg 90%
    03:00 +8°C° 0,2 mm 4 mps 759 mmHg 90%
    04:00 +8°C° 0,2 mm 4 mps 759 mmHg 90%
    05:00 +8°C° 0,2 mm 4 mps 758 mmHg 90%
    06:00 +8°C° 0,5 mm 4 mps 759 mmHg 89%
    07:00 +10°C° 0,5 mm 4 mps 759 mmHg 89%
    08:00 +10°C° 0,5 mm 4 mps 759 mmHg 88%
    09:00 +11°C° 0,4 mm 4 mps 759 mmHg 85%
    10:00 +12°C° 0,4 mm 4 mps 760 mmHg 82%
    11:00 +13°C° 0,4 mm 4 mps 760 mmHg 79%
    12:00 +13°C° 0,6 mm 4 mps 759 mmHg 80%
    13:00 +13°C° 0,6 mm 4 mps 759 mmHg 81%
    14:00 +13°C° 0,6 mm 5 mps 759 mmHg 82%
    15:00 +12°C° 0,4 mm 5 mps 759 mmHg 84%
    16:00 +12°C° 0,4 mm 5 mps 760 mmHg 85%
    17:00 +10°C° 0,4 mm 5 mps 760 mmHg 87%
    18:00 +10°C° 0,1 mm 5 mps 760 mmHg 86%
    19:00 +9°C° 0,1 mm 5 mps 761 mmHg 84%
    20:00 +10°C° 0,1 mm 4 mps 762 mmHg 83%
    21:00 +8°C° 0 mm 4 mps 762 mmHg 82%
    22:00 +8°C° 0 mm 4 mps 762 mmHg 81%
    23:00 +7°C° 0 mm 4 mps 762 mmHg 79%

    29 Septiembre, Viernes

    Tiempo Temperatura Precipitaciones Viento Presión Humedad
    00:00 +7°C° 0 mm 4 mps 762 mmHg 78%
    01:00 +8°C° 0 mm 3 mps 762 mmHg 77%
    02:00 +8°C° 0 mm 3 mps 762 mmHg 75%
    03:00 +7°C° 0 mm 4 mps 762 mmHg 76%
    04:00 +7°C° 0 mm 4 mps 762 mmHg 76%
    05:00 +7°C° 0 mm 4 mps 763 mmHg 77%
    06:00 +8°C° 0 mm 4 mps 763 mmHg 76%
    07:00 +10°C° 0 mm 4 mps 764 mmHg 75%
    08:00 +11°C° 0 mm 4 mps 764 mmHg 75%
    09:00 +12°C° 0 mm 4 mps 764 mmHg 70%
    10:00 +13°C° 0 mm 5 mps 764 mmHg 66%
    11:00 +15°C° 0 mm 5 mps 764 mmHg 62%
    12:00 +14°C° 0 mm 5 mps 764 mmHg 63%
    13:00 +14°C° 0 mm 5 mps 764 mmHg 64%
    14:00 +14°C° 0 mm 5 mps 764 mmHg 66%
    15:00 +14°C° 0 mm 5 mps 764 mmHg 68%
    16:00 +13°C° 0 mm 5 mps 765 mmHg 70%
    17:00 +13°C° 0 mm 5 mps 765 mmHg 72%
    18:00 +12°C° 0,1 mm 4 mps 765 mmHg 75%
    19:00 +12°C° 0,1 mm 4 mps 766 mmHg 77%
    20:00 +11°C° 0,1 mm 4 mps 766 mmHg 80%
    21:00 +11°C° 0 mm 4 mps 766 mmHg 80%
    22:00 +11°C° 0 mm 3 mps 766 mmHg 80%
    23:00 +10°C° 0 mm 3 mps 766 mmHg 80%
    Mostrar más